Location: *
(32.3300°N, 34.8500°E)
Time: 03:04:35
(UTC+00:00)

IDEFIX/ARIANE 42P - Pass Details

Date: 22 October 2019
Orbit: 785 x 803 km, 98.3° (Epoch: 12 November)

Event Time Altitude Azimuth Distance (km) Brightness Sun altitude
Rises 01:27:03 0° 10° (N) 3,300 6.0 -30.7°
Reaches altitude 10° 01:29:23 10° 9° (N) 2,364 5.2 -30.2°
Enters shadow 01:31:41 27° 5° (N) 1,491 4.0 -29.7°
